Time,TemperatureF,DewpointF,PressureIn,WindDirection,WindDirectionDegrees,WindSpeedMPH,WindSpeedGustMPH,Humidity,HourlyPrecipIn,Conditions,Clouds,dailyrainin,SoftwareType,DateUTC
2013-06-13 00:01:00,65.2,64.3,29.51,West,273,0.0,0.0,97,0.01,,---,0.00,VWS V13.01,2013-06-13 04:01:00,
2013-06-13 00:03:00,65.1,64.2,29.51,West,274,0.0,0.0,97,0.01,,---,0.00,VWS V13.01,2013-06-13 04:03:00,
2013-06-13 00:04:00,65.1,64.2,29.51,West,274,0.0,0.0,97,0.01,,---,0.00,VWS V13.01,2013-06-13 04:04:00,
2013-06-13 00:05:00,65.0,64.1,29.51,West,274,0.0,0.0,97,0.01,,---,0.00,VWS V13.01,2013-06-13 04:05:00,
2013-06-13 00:10:00,65.1,64.2,29.51,West,274,0.0,0.0,97,0.01,,---,0.00,VWS V13.01,2013-06-13 04:10:00,
2013-06-13 00:16:00,65.0,64.1,29.52,West,273,0.0,0.0,97,0.01,,---,0.00,VWS V13.01,2013-06-13 04:16:00,
2013-06-13 00:21:00,65.2,64.6,29.52,West,273,0.0,3.0,98,0.02,,---,0.01,VWS V13.01,2013-06-13 04:21:00,
2013-06-13 00:26:00,65.3,64.7,29.51,West,274,0.0,4.0,98,0.02,,---,0.01,VWS V13.01,2013-06-13 04:26:00,
2013-06-13 00:31:00,65.3,64.7,29.50,West,273,0.0,0.0,98,0.02,,---,0.01,VWS V13.01,2013-06-13 04:31:00,
2013-06-13 00:36:00,65.4,64.8,29.50,West,274,0.0,0.0,98,0.03,,---,0.02,VWS V13.01,2013-06-13 04:36:00,
2013-06-13 00:41:00,65.2,64.6,29.49,West,274,0.0,1.0,98,0.05,,---,0.04,VWS V13.01,2013-06-13 04:41:00,
2013-06-13 00:46:00,65.3,64.7,29.48,West,273,5.0,5.0,98,0.06,,---,0.05,VWS V13.01,2013-06-13 04:46:00,
2013-06-13 00:51:00,64.9,64.3,29.48,West,274,0.0,6.0,98,0.06,,---,0.05,VWS V13.01,2013-06-13 04:51:00,
2013-06-13 00:56:00,65.0,64.4,29.48,West,273,0.0,6.0,98,0.06,,---,0.05,VWS V13.01,2013-06-13 04:56:00,
2013-06-13 01:01:00,65.0,64.4,29.47,West,273,0.0,5.0,98,0.05,,---,0.05,VWS V13.01,2013-06-13 05:01:00,
2013-06-13 01:06:00,65.0,64.4,29.47,West,273,0.0,5.0,98,0.05,,---,0.05,VWS V13.01,2013-06-13 05:06:00,
2013-06-13 01:11:00,65.1,64.5,29.47,West,274,0.0,5.0,98,0.05,,---,0.05,VWS V13.01,2013-06-13 05:11:00,
2013-06-13 01:16:00,65.1,64.5,29.47,West,274,0.0,5.0,98,0.05,,---,0.05,VWS V13.01,2013-06-13 05:16:00,
2013-06-13 01:21:00,65.0,64.4,29.46,West,273,0.0,5.0,98,0.06,,---,0.06,VWS V13.01,2013-06-13 05:21:00,
2013-06-13 01:26:00,65.0,64.4,29.46,West,274,0.0,5.0,98,0.06,,---,0.06,VWS V13.01,2013-06-13 05:26:00,
2013-06-13 01:31:00,64.9,64.3,29.46,West,274,0.0,0.0,98,0.06,,---,0.07,VWS V13.01,2013-06-13 05:31:00,
2013-06-13 01:37:00,64.8,64.2,29.45,West,274,0.0,1.0,98,0.08,,---,0.09,VWS V13.01,2013-06-13 05:37:00,
2013-06-13 01:42:00,64.8,64.2,29.45,West,274,0.0,1.0,98,0.09,,---,0.10,VWS V13.01,2013-06-13 05:42:00,
2013-06-13 01:47:00,64.8,64.2,29.44,West,273,0.0,1.0,98,0.10,,---,0.11,VWS V13.01,2013-06-13 05:47:00,
2013-06-13 01:52:00,64.7,64.1,29.42,West,274,0.0,1.0,98,0.10,,---,0.11,VWS V13.01,2013-06-13 05:52:00,
2013-06-13 01:57:00,64.6,64.0,29.42,West,274,2.0,2.0,98,0.12,,---,0.13,VWS V13.01,2013-06-13 05:57:00,
2013-06-13 02:02:00,64.8,64.2,29.42,NW,317,0.0,5.0,98,0.10,,---,0.15,VWS V13.01,2013-06-13 06:02:00,
2013-06-13 02:07:00,64.8,64.2,29.40,NW,317,1.0,5.0,98,0.10,,---,0.15,VWS V13.01,2013-06-13 06:07:00,
2013-06-13 02:12:00,64.6,64.0,29.39,NW,317,0.0,5.0,98,0.10,,---,0.15,VWS V13.01,2013-06-13 06:12:00,
2013-06-13 02:17:00,64.6,64.0,29.39,NW,317,0.0,5.0,98,0.10,,---,0.15,VWS V13.01,2013-06-13 06:17:00,
2013-06-13 02:22:00,64.5,63.9,29.39,NW,317,0.0,5.0,98,0.10,,---,0.15,VWS V13.01,2013-06-13 06:22:00,
2013-06-13 02:27:00,64.4,63.8,29.38,NW,317,0.0,5.0,98,0.10,,---,0.15,VWS V13.01,2013-06-13 06:27:00,
2013-06-13 02:32:00,64.4,63.8,29.39,NW,317,0.0,0.0,98,0.09,,---,0.16,VWS V13.01,2013-06-13 06:32:00,
2013-06-13 02:37:00,64.4,63.8,29.39,NW,317,0.0,1.0,98,0.09,,---,0.16,VWS V13.01,2013-06-13 06:37:00,
2013-06-13 02:42:00,64.5,63.9,29.40,NW,317,0.0,2.0,98,0.09,,---,0.16,VWS V13.01,2013-06-13 06:42:00,
2013-06-13 02:47:00,64.5,63.9,29.39,NW,317,0.0,2.0,98,0.09,,---,0.16,VWS V13.01,2013-06-13 06:47:00,
2013-06-13 02:52:00,64.5,63.9,29.39,NW,317,4.0,4.0,98,0.09,,---,0.16,VWS V13.01,2013-06-13 06:52:00,
2013-06-13 02:57:00,64.4,63.8,29.38,NNW,339,5.0,11.0,98,0.09,,---,0.16,VWS V13.01,2013-06-13 06:57:00,
2013-06-13 03:02:00,64.4,63.8,29.37,NNW,338,0.0,1.0,98,0.02,,---,0.16,VWS V13.01,2013-06-13 07:02:00,
2013-06-13 03:08:00,64.3,63.7,29.37,NNW,339,0.0,1.0,98,0.02,,---,0.16,VWS V13.01,2013-06-13 07:08:00,
2013-06-13 03:13:00,64.5,63.9,29.37,North,360,0.0,6.0,98,0.02,,---,0.16,VWS V13.01,2013-06-13 07:13:00,
2013-06-13 03:18:00,64.6,64.0,29.35,North,9,3.0,6.0,98,0.02,,---,0.16,VWS V13.01,2013-06-13 07:18:00,
2013-06-13 03:23:00,64.7,64.1,29.36,North,10,0.0,6.0,98,0.02,,---,0.16,VWS V13.01,2013-06-13 07:23:00,
2013-06-13 03:28:00,64.7,64.1,29.36,North,10,0.0,6.0,98,0.02,,---,0.16,VWS V13.01,2013-06-13 07:28:00,
2013-06-13 03:33:00,64.4,63.8,29.35,North,10,0.0,0.0,98,0.01,,---,0.16,VWS V13.01,2013-06-13 07:33:00,
2013-06-13 03:38:00,64.2,63.6,29.35,North,10,0.0,0.0,98,0.01,,---,0.16,VWS V13.01,2013-06-13 07:38:00,
2013-06-13 03:43:00,64.1,63.5,29.35,North,10,0.0,0.0,98,0.01,,---,0.16,VWS V13.01,2013-06-13 07:43:00,
2013-06-13 03:48:00,64.1,63.5,29.35,North,10,0.0,1.0,98,0.01,,---,0.16,VWS V13.01,2013-06-13 07:48:00,
2013-06-13 03:53:00,64.1,63.5,29.34,North,10,0.0,1.0,98,0.01,,---,0.16,VWS V13.01,2013-06-13 07:53:00,
2013-06-13 03:58:00,64.2,63.6,29.34,North,10,0.0,1.0,98,0.01,,---,0.16,VWS V13.01,2013-06-13 07:58:00,
2013-06-13 04:03:00,64.1,63.5,29.33,North,10,0.0,1.0,98,0.00,,---,0.16,VWS V13.01,2013-06-13 08:03:00,
2013-06-13 04:08:00,64.1,63.5,29.33,North,10,0.0,1.0,98,0.01,,---,0.17,VWS V13.01,2013-06-13 08:08:00,
2013-06-13 04:13:00,64.1,63.5,29.33,North,10,0.0,1.0,98,0.01,,---,0.17,VWS V13.01,2013-06-13 08:13:00,
2013-06-13 04:18:00,64.2,63.6,29.32,North,10,0.0,2.0,98,0.03,,---,0.19,VWS V13.01,2013-06-13 08:18:00,
2013-06-13 04:23:00,64.1,63.5,29.32,NNE,13,0.0,2.0,98,0.04,,---,0.21,VWS V13.01,2013-06-13 08:23:00,
2013-06-13 04:28:00,64.2,63.6,29.31,NNE,33,6.0,8.0,98,0.07,,---,0.23,VWS V13.01,2013-06-13 08:28:00,
2013-06-13 04:34:00,64.3,63.7,29.31,NE,56,4.0,9.0,98,0.10,,---,0.26,VWS V13.01,2013-06-13 08:34:00,
2013-06-13 04:39:00,64.4,63.8,29.30,NE,56,4.0,9.0,98,0.13,,---,0.29,VWS V13.01,2013-06-13 08:39:00,
2013-06-13 04:44:00,64.4,63.8,29.30,NE,56,0.0,9.0,98,0.15,,---,0.31,VWS V13.01,2013-06-13 08:44:00,
2013-06-13 04:49:00,64.3,63.7,29.30,NE,56,0.0,9.0,98,0.18,,---,0.35,VWS V13.01,2013-06-13 08:49:00,
2013-06-13 04:54:00,64.3,63.7,29.29,NE,56,5.0,9.0,98,0.23,,---,0.39,VWS V13.01,2013-06-13 08:54:00,
2013-06-13 04:59:00,64.4,63.8,29.30,ENE,67,0.0,9.0,98,0.30,,---,0.46,VWS V13.01,2013-06-13 08:59:00,
2013-06-13 05:04:00,64.4,63.8,29.29,ENE,67,0.0,0.0,98,0.39,,---,0.55,VWS V13.01,2013-06-13 09:04:00,
2013-06-13 05:09:00,64.4,63.8,29.29,ENE,67,0.0,0.0,98,0.43,,---,0.60,VWS V13.01,2013-06-13 09:09:00,
2013-06-13 05:14:00,64.5,63.9,29.28,ENE,72,0.0,9.0,98,0.52,,---,0.69,VWS V13.01,2013-06-13 09:14:00,
2013-06-13 05:19:00,64.7,64.1,29.25,ENE,60,6.0,9.0,98,0.58,,---,0.75,VWS V13.01,2013-06-13 09:19:00,
2013-06-13 05:24:00,64.9,64.3,29.23,East,89,11.0,15.0,98,0.61,,---,0.77,VWS V13.01,2013-06-13 09:24:00,
2013-06-13 05:29:00,65.3,64.7,29.22,East,85,11.0,15.0,98,0.62,,---,0.78,VWS V13.01,2013-06-13 09:29:00,
2013-06-13 05:34:00,65.6,65.0,29.20,East,83,7.0,12.0,98,0.55,,---,0.79,VWS V13.01,2013-06-13 09:34:00,
2013-06-13 05:39:00,65.8,65.2,29.20,NE,49,0.0,12.0,98,0.55,,---,0.79,VWS V13.01,2013-06-13 09:39:00,
2013-06-13 05:44:00,65.9,65.0,29.20,West,275,0.0,12.0,97,0.55,,---,0.79,VWS V13.01,2013-06-13 09:44:00,
2013-06-13 05:49:00,65.9,65.0,29.19,SE,138,6.0,15.0,97,0.55,,---,0.79,VWS V13.01,2013-06-13 09:49:00,
2013-06-13 05:54:00,66.0,64.8,29.19,WNW,282,8.0,15.0,96,0.55,,---,0.79,VWS V13.01,2013-06-13 09:54:00,
2013-06-13 05:59:00,66.1,64.9,29.19,NW,315,6.0,15.0,96,0.55,,---,0.79,VWS V13.01,2013-06-13 09:59:00,
2013-06-13 06:05:00,66.3,64.8,29.18,WSW,253,2.0,10.0,95,0.31,,---,0.79,VWS V13.01,2013-06-13 10:05:00,
2013-06-13 06:10:00,66.3,64.8,29.18,NNE,15,2.0,10.0,95,0.31,,---,0.79,VWS V13.01,2013-06-13 10:10:00,
2013-06-13 06:15:00,66.3,64.8,29.18,West,277,4.0,10.0,95,0.31,,---,0.79,VWS V13.01,2013-06-13 10:15:00,
2013-06-13 06:20:00,66.3,64.8,29.17,NW,306,0.0,10.0,95,0.31,,---,0.79,VWS V13.01,2013-06-13 10:20:00,
2013-06-13 06:25:00,66.3,64.5,29.17,NW,309,3.0,10.0,94,0.31,,---,0.79,VWS V13.01,2013-06-13 10:25:00,
2013-06-13 06:30:00,66.3,64.5,29.17,NW,307,2.0,10.0,94,0.31,,---,0.79,VWS V13.01,2013-06-13 10:30:00,
2013-06-13 06:35:00,66.4,64.6,29.17,NW,317,5.0,9.0,94,0.00,,---,0.79,VWS V13.01,2013-06-13 10:35:00,
2013-06-13 06:40:00,66.3,64.5,29.16,NW,315,5.0,9.0,94,0.00,,---,0.79,VWS V13.01,2013-06-13 10:40:00,
2013-06-13 06:45:00,66.2,64.7,29.16,NW,310,5.0,9.0,95,0.00,,---,0.79,VWS V13.01,2013-06-13 10:45:00,
2013-06-13 06:50:00,66.2,64.7,29.16,NW,314,0.0,11.0,95,0.00,,---,0.79,VWS V13.01,2013-06-13 10:50:00,
2013-06-13 06:55:00,66.1,64.6,29.17,NW,315,0.0,11.0,95,0.00,,---,0.79,VWS V13.01,2013-06-13 10:55:00,
2013-06-13 07:00:00,66.0,64.5,29.17,WNW,302,5.0,7.0,95,0.00,,---,0.79,VWS V13.01,2013-06-13 11:00:00,
2013-06-13 07:05:00,66.3,64.8,29.17,WNW,302,0.0,7.0,95,0.00,,---,0.79,VWS V13.01,2013-06-13 11:05:00,
2013-06-13 07:10:00,66.3,64.8,29.17,WNW,302,1.0,7.0,95,0.00,,---,0.79,VWS V13.01,2013-06-13 11:10:00,
2013-06-13 07:15:00,66.5,65.0,29.17,WNW,302,0.0,7.0,95,0.00,,---,0.79,VWS V13.01,2013-06-13 11:15:00,
2013-06-13 07:20:00,66.5,65.0,29.17,WNW,302,0.0,7.0,95,0.00,,---,0.79,VWS V13.01,2013-06-13 11:20:00,
2013-06-13 07:25:00,66.5,64.7,29.17,WNW,284,0.0,9.0,94,0.00,,---,0.79,VWS V13.01,2013-06-13 11:25:00,
2013-06-13 07:30:00,66.6,64.8,29.17,West,275,0.0,2.0,94,0.00,,---,0.79,VWS V13.01,2013-06-13 11:30:00,
2013-06-13 07:36:00,66.7,64.6,29.17,West,275,6.0,9.0,93,0.00,,---,0.79,VWS V13.01,2013-06-13 11:36:00,
2013-06-13 07:41:00,66.8,64.4,29.17,West,281,3.0,10.0,92,0.00,,---,0.79,VWS V13.01,2013-06-13 11:41:00,
2013-06-13 07:46:00,66.7,64.0,29.16,WSW,246,1.0,10.0,91,0.00,,---,0.79,VWS V13.01,2013-06-13 11:46:00,
2013-06-13 07:51:00,66.7,64.0,29.16,SW,216,0.0,11.0,91,0.00,,---,0.79,VWS V13.01,2013-06-13 11:51:00,
2013-06-13 07:56:00,66.7,64.0,29.16,West,281,0.0,11.0,91,0.00,,---,0.79,VWS V13.01,2013-06-13 11:56:00,
2013-06-13 08:01:00,66.6,63.6,29.16,WNW,290,0.0,0.0,90,0.00,,---,0.79,VWS V13.01,2013-06-13 12:01:00,
2013-06-13 08:06:00,66.5,63.5,29.16,WNW,284,7.0,12.0,90,0.00,,---,0.79,VWS V13.01,2013-06-13 12:06:00,
2013-06-13 08:11:00,66.4,63.7,29.16,West,275,1.0,12.0,91,0.00,,---,0.79,VWS V13.01,2013-06-13 12:11:00,
2013-06-13 08:16:00,66.3,63.3,29.15,SW,229,0.0,12.0,90,0.00,,---,0.79,VWS V13.01,2013-06-13 12:16:00,
2013-06-13 08:21:00,66.3,63.6,29.15,SW,230,0.0,12.0,91,0.00,,---,0.79,VWS V13.01,2013-06-13 12:21:00,
2013-06-13 08:26:00,66.3,63.6,29.15,WSW,242,0.0,12.0,91,0.00,,---,0.79,VWS V13.01,2013-06-13 12:26:00,
2013-06-13 08:31:00,66.2,63.5,29.15,SSW,208,0.0,0.0,91,0.00,,---,0.79,VWS V13.01,2013-06-13 12:31:00,
2013-06-13 08:36:00,66.1,63.4,29.14,West,268,0.0,8.0,91,0.01,,---,0.80,VWS V13.01,2013-06-13 12:36:00,
2013-06-13 08:41:00,65.9,63.5,29.14,WNW,287,0.0,8.0,92,0.03,,---,0.83,VWS V13.01,2013-06-13 12:41:00,
2013-06-13 08:46:00,65.5,63.1,29.14,SSW,198,0.0,14.0,92,0.07,,---,0.86,VWS V13.01,2013-06-13 12:46:00,
2013-06-13 08:52:00,65.2,63.1,29.14,SSW,207,0.0,14.0,93,0.09,,---,0.88,VWS V13.01,2013-06-13 12:52:00,
2013-06-13 08:57:00,65.2,63.1,29.14,SSW,213,0.0,14.0,93,0.11,,---,0.91,VWS V13.01,2013-06-13 12:57:00,
2013-06-13 09:02:00,65.1,63.0,29.14,WSW,247,0.0,1.0,93,0.12,,---,0.91,VWS V13.01,2013-06-13 13:02:00,
2013-06-13 09:07:00,65.0,63.2,29.14,WSW,247,0.0,4.0,94,0.13,,---,0.92,VWS V13.01,2013-06-13 13:07:00,
2013-06-13 09:12:00,64.9,63.1,29.13,WSW,247,1.0,4.0,94,0.14,,---,0.93,VWS V13.01,2013-06-13 13:12:00,
2013-06-13 09:17:00,64.9,63.1,29.13,WSW,247,0.0,4.0,94,0.15,,---,0.94,VWS V13.01,2013-06-13 13:17:00,
2013-06-13 09:22:00,64.8,63.3,29.13,WSW,247,0.0,4.0,95,0.16,,---,0.95,VWS V13.01,2013-06-13 13:22:00,
2013-06-13 09:27:00,64.7,63.2,29.13,WSW,248,1.0,6.0,95,0.16,,---,0.95,VWS V13.01,2013-06-13 13:27:00,
2013-06-13 09:32:00,64.7,63.2,29.13,WSW,253,0.0,6.0,95,0.16,,---,0.95,VWS V13.01,2013-06-13 13:32:00,
2013-06-13 09:37:00,64.8,63.3,29.13,West,259,6.0,9.0,95,0.17,,---,0.96,VWS V13.01,2013-06-13 13:37:00,
2013-06-13 09:42:00,64.8,63.3,29.13,West,261,8.0,10.0,95,0.17,,---,0.96,VWS V13.01,2013-06-13 13:42:00,
2013-06-13 09:47:00,65.0,63.5,29.13,WSW,256,4.0,14.0,95,0.17,,---,0.96,VWS V13.01,2013-06-13 13:47:00,
2013-06-13 09:52:00,65.2,64.0,29.13,WSW,245,5.0,14.0,96,0.17,,---,0.96,VWS V13.01,2013-06-13 13:52:00,
2013-06-13 09:57:00,65.3,64.1,29.13,West,276,9.0,14.0,96,0.17,,---,0.96,VWS V13.01,2013-06-13 13:57:00,
2013-06-13 10:03:00,65.1,63.9,29.13,West,270,9.0,13.0,96,0.05,,---,0.96,VWS V13.01,2013-06-13 14:03:00,
2013-06-13 10:08:00,64.9,63.7,29.13,West,274,9.0,18.0,96,0.06,,---,0.97,VWS V13.01,2013-06-13 14:08:00,
2013-06-13 10:13:00,64.9,63.7,29.14,West,267,7.0,18.0,96,0.06,,---,0.97,VWS V13.01,2013-06-13 14:13:00,
2013-06-13 10:18:00,65.0,63.8,29.14,West,275,9.0,18.0,96,0.06,,---,0.97,VWS V13.01,2013-06-13 14:18:00,
2013-06-13 10:23:00,65.1,63.6,29.15,West,263,9.0,18.0,95,0.06,,---,0.97,VWS V13.01,2013-06-13 14:23:00,
2013-06-13 10:28:00,65.2,63.7,29.15,West,261,10.0,18.0,95,0.06,,---,0.97,VWS V13.01,2013-06-13 14:28:00,
2013-06-13 10:33:00,65.4,63.9,29.15,West,271,5.0,10.0,95,0.02,,---,0.97,VWS V13.01,2013-06-13 14:33:00,
2013-06-13 10:38:00,66.0,64.8,29.15,West,265,7.0,11.0,96,0.02,,---,0.97,VWS V13.01,2013-06-13 14:38:00,
2013-06-13 10:43:00,66.5,65.0,29.15,West,264,9.0,11.0,95,0.02,,---,0.97,VWS V13.01,2013-06-13 14:43:00,
2013-06-13 10:48:00,66.3,64.5,29.15,WSW,253,5.0,11.0,94,0.02,,---,0.97,VWS V13.01,2013-06-13 14:48:00,
2013-06-13 10:53:00,66.3,64.8,29.15,West,268,4.0,13.0,95,0.02,,---,0.97,VWS V13.01,2013-06-13 14:53:00,
2013-06-13 10:58:00,66.3,64.5,29.16,West,279,7.0,13.0,94,0.02,,---,0.97,VWS V13.01,2013-06-13 14:58:00,
2013-06-13 11:03:00,66.1,64.3,29.16,WNW,300,7.0,10.0,94,0.01,,---,0.97,VWS V13.01,2013-06-13 15:03:00,
2013-06-13 11:08:00,65.9,64.1,29.17,WNW,302,10.0,18.0,94,0.01,,---,0.97,VWS V13.01,2013-06-13 15:08:00,
2013-06-13 11:13:00,65.9,64.1,29.17,West,276,12.0,18.0,94,0.01,,---,0.97,VWS V13.01,2013-06-13 15:13:00,
2013-06-13 11:18:00,65.8,63.4,29.17,WNW,299,14.0,19.0,92,0.01,,---,0.97,VWS V13.01,2013-06-13 15:18:00,
2013-06-13 11:24:00,64.7,62.0,29.18,West,280,12.0,21.0,91,0.01,,---,0.97,VWS V13.01,2013-06-13 15:24:00,
2013-06-13 11:29:00,64.1,62.0,29.18,WNW,284,6.0,21.0,93,0.01,,---,0.97,VWS V13.01,2013-06-13 15:29:00,
2013-06-13 11:34:00,63.6,61.5,29.19,West,266,18.0,20.0,93,0.00,,---,0.97,VWS V13.01,2013-06-13 15:34:00,
2013-06-13 11:39:00,63.1,61.0,29.20,WNW,286,13.0,20.0,93,0.00,,---,0.97,VWS V13.01,2013-06-13 15:39:00,
2013-06-13 11:44:00,62.5,60.5,29.21,West,280,8.0,20.0,93,0.00,,---,0.97,VWS V13.01,2013-06-13 15:44:00,
2013-06-13 11:49:00,62.3,60.2,29.21,West,281,8.0,20.0,93,0.00,,---,0.97,VWS V13.01,2013-06-13 15:49:00,
2013-06-13 11:54:00,62.5,60.5,29.21,NW,304,5.0,20.0,93,0.00,,---,0.97,VWS V13.01,2013-06-13 15:54:00,
2013-06-13 11:59:00,62.6,60.5,29.21,WNW,294,15.0,20.0,93,0.00,,---,0.97,VWS V13.01,2013-06-13 15:59:00,
2013-06-13 12:04:00,62.5,60.5,29.22,West,280,9.0,16.0,93,0.00,,---,0.97,VWS V13.01,2013-06-13 16:04:00,
2013-06-13 12:09:00,62.2,59.8,29.22,WNW,284,12.0,16.0,92,0.00,,---,0.97,VWS V13.01,2013-06-13 16:09:00,
2013-06-13 12:14:00,61.8,59.8,29.23,WNW,284,8.0,18.0,93,0.00,,---,0.97,VWS V13.01,2013-06-13 16:14:00,
2013-06-13 12:19:00,61.6,59.6,29.24,WNW,297,10.0,18.0,93,0.00,,---,0.97,VWS V13.01,2013-06-13 16:19:00,
2013-06-13 12:24:00,61.4,59.4,29.24,West,259,10.0,18.0,93,0.00,,---,0.97,VWS V13.01,2013-06-13 16:24:00,
2013-06-13 12:29:00,61.3,59.3,29.24,WNW,291,10.0,18.0,93,0.00,,---,0.97,VWS V13.01,2013-06-13 16:29:00,
2013-06-13 12:34:00,61.1,59.1,29.24,West,272,11.0,18.0,93,0.00,,---,0.97,VWS V13.01,2013-06-13 16:34:00,
2013-06-13 12:39:00,61.0,59.3,29.25,WNW,298,10.0,18.0,94,0.00,,---,0.97,VWS V13.01,2013-06-13 16:39:00,
2013-06-13 12:45:00,60.8,58.8,29.25,West,281,10.0,18.0,93,0.00,,---,0.97,VWS V13.01,2013-06-13 16:45:00,
2013-06-13 12:50:00,60.6,58.9,29.25,West,272,12.0,18.0,94,0.00,,---,0.97,VWS V13.01,2013-06-13 16:50:00,
2013-06-13 12:55:00,60.5,58.8,29.26,WNW,302,9.0,18.0,94,0.00,,---,0.97,VWS V13.01,2013-06-13 16:55:00,
2013-06-13 13:00:00,60.5,58.8,29.26,WNW,287,11.0,11.0,94,0.00,,---,0.97,VWS V13.01,2013-06-13 17:00:00,
2013-06-13 13:05:00,60.2,58.5,29.27,West,263,10.0,21.0,94,0.00,,---,0.97,VWS V13.01,2013-06-13 17:05:00,
2013-06-13 13:10:00,60.0,58.3,29.27,WNW,292,10.0,21.0,94,0.00,,---,0.97,VWS V13.01,2013-06-13 17:10:00,
2013-06-13 13:15:00,59.8,58.1,29.28,WNW,288,10.0,21.0,94,0.00,,---,0.97,VWS V13.01,2013-06-13 17:15:00,
2013-06-13 13:20:00,59.8,58.1,29.28,WNW,300,11.0,21.0,94,0.00,,---,0.97,VWS V13.01,2013-06-13 17:20:00,
2013-06-13 13:25:00,59.8,58.4,29.28,West,277,12.0,21.0,95,0.00,,---,0.97,VWS V13.01,2013-06-13 17:25:00,
2013-06-13 13:30:00,59.8,58.4,29.29,WNW,302,7.0,9.0,95,0.00,,---,0.97,VWS V13.01,2013-06-13 17:30:00,
2013-06-13 13:35:00,59.8,58.4,29.29,West,273,11.0,15.0,95,0.01,,---,0.98,VWS V13.01,2013-06-13 17:35:00,
2013-06-13 13:40:00,59.7,58.3,29.29,West,267,6.0,15.0,95,0.01,,---,0.98,VWS V13.01,2013-06-13 17:40:00,
2013-06-13 13:45:00,59.9,58.5,29.29,West,267,8.0,16.0,95,0.02,,---,0.99,VWS V13.01,2013-06-13 17:45:00,
2013-06-13 13:50:00,60.1,58.7,29.29,NW,318,3.0,16.0,95,0.02,,---,0.99,VWS V13.01,2013-06-13 17:50:00,
2013-06-13 13:55:00,60.3,58.9,29.30,WNW,294,8.0,16.0,95,0.02,,---,0.99,VWS V13.01,2013-06-13 17:55:00,
2013-06-13 14:00:00,60.6,59.5,29.30,WNW,298,11.0,13.0,96,0.03,,---,1.00,VWS V13.01,2013-06-13 18:00:00,
2013-06-13 14:06:00,60.6,59.2,29.31,WNW,290,6.0,13.0,95,0.03,,---,1.00,VWS V13.01,2013-06-13 18:06:00,
2013-06-13 14:11:00,60.5,59.1,29.31,WNW,290,2.0,13.0,95,0.03,,---,1.00,VWS V13.01,2013-06-13 18:11:00,
2013-06-13 14:16:00,60.5,59.1,29.31,WNW,282,8.0,13.0,95,0.03,,---,1.00,VWS V13.01,2013-06-13 18:16:00,
2013-06-13 14:21:00,60.4,58.7,29.33,NW,304,10.0,14.0,94,0.03,,---,1.00,VWS V13.01,2013-06-13 18:21:00,
2013-06-13 14:26:00,60.5,59.1,29.32,WSW,252,0.0,14.0,95,0.03,,---,1.00,VWS V13.01,2013-06-13 18:26:00,
2013-06-13 14:31:00,60.5,58.8,29.33,NNW,330,5.0,9.0,94,0.03,,---,1.00,VWS V13.01,2013-06-13 18:31:00,
2013-06-13 14:36:00,60.5,58.8,29.33,NW,313,4.0,15.0,94,0.03,,---,1.00,VWS V13.01,2013-06-13 18:36:00,
2013-06-13 14:41:00,60.3,58.6,29.34,WNW,303,8.0,15.0,94,0.03,,---,1.00,VWS V13.01,2013-06-13 18:41:00,
2013-06-13 14:46:00,60.0,58.3,29.34,WNW,296,5.0,15.0,94,0.03,,---,1.00,VWS V13.01,2013-06-13 18:46:00,
2013-06-13 14:51:00,59.6,57.9,29.34,NW,311,11.0,15.0,94,0.03,,---,1.00,VWS V13.01,2013-06-13 18:51:00,
2013-06-13 14:56:00,59.0,57.6,29.34,WNW,293,7.0,16.0,95,0.03,,---,1.00,VWS V13.01,2013-06-13 18:56:00,
2013-06-13 15:01:00,59.0,57.9,29.35,NW,325,5.0,20.0,96,0.00,,---,1.00,VWS V13.01,2013-06-13 19:01:00,
2013-06-13 15:06:00,58.9,57.5,29.35,NW,322,2.0,20.0,95,0.00,,---,1.00,VWS V13.01,2013-06-13 19:06:00,
2013-06-13 15:11:00,58.8,57.7,29.36,WNW,283,10.0,20.0,96,0.00,,---,1.00,VWS V13.01,2013-06-13 19:11:00,
2013-06-13 15:17:00,58.5,57.4,29.37,WNW,288,5.0,20.0,96,0.00,,---,1.00,VWS V13.01,2013-06-13 19:17:00,
2013-06-13 15:22:00,58.5,57.4,29.37,NW,309,13.0,20.0,96,0.00,,---,1.00,VWS V13.01,2013-06-13 19:22:00,
2013-06-13 15:27:00,58.4,57.3,29.37,NNW,333,5.0,20.0,96,0.00,,---,1.00,VWS V13.01,2013-06-13 19:27:00,
2013-06-13 15:32:00,58.6,57.5,29.37,WNW,299,0.0,11.0,96,0.00,,---,1.00,VWS V13.01,2013-06-13 19:32:00,
2013-06-13 15:37:00,59.0,57.9,29.37,NNW,329,5.0,11.0,96,0.00,,---,1.00,VWS V13.01,2013-06-13 19:37:00,
2013-06-13 15:42:00,59.0,57.6,29.37,WNW,298,2.0,14.0,95,0.00,,---,1.00,VWS V13.01,2013-06-13 19:42:00,
2013-06-13 15:47:00,59.2,57.8,29.37,WNW,303,6.0,18.0,95,0.00,,---,1.00,VWS V13.01,2013-06-13 19:47:00,
2013-06-13 15:52:00,59.6,58.2,29.38,NW,317,8.0,18.0,95,0.00,,---,1.00,VWS V13.01,2013-06-13 19:52:00,
2013-06-13 15:57:00,59.7,58.0,29.38,WNW,298,8.0,18.0,94,0.00,,---,1.00,VWS V13.01,2013-06-13 19:57:00,
2013-06-13 16:02:00,59.7,58.0,29.38,WNW,302,7.0,14.0,94,0.00,,---,1.00,VWS V13.01,2013-06-13 20:02:00,
2013-06-13 16:07:00,59.7,58.0,29.38,NNW,337,6.0,14.0,94,0.00,,---,1.00,VWS V13.01,2013-06-13 20:07:00,
2013-06-13 16:12:00,59.6,57.9,29.39,WNW,290,7.0,14.0,94,0.00,,---,1.00,VWS V13.01,2013-06-13 20:12:00,
2013-06-13 16:17:00,59.6,57.9,29.39,NW,321,9.0,14.0,94,0.00,,---,1.00,VWS V13.01,2013-06-13 20:17:00,
2013-06-13 16:22:00,59.6,57.6,29.40,NE,34,1.0,18.0,93,0.00,,---,1.00,VWS V13.01,2013-06-13 20:22:00,
2013-06-13 16:28:00,59.5,57.5,29.40,NNW,331,1.0,18.0,93,0.00,,---,1.00,VWS V13.01,2013-06-13 20:28:00,
2013-06-13 16:33:00,59.3,57.3,29.40,NE,36,2.0,19.0,93,0.00,,---,1.00,VWS V13.01,2013-06-13 20:33:00,
2013-06-13 16:38:00,59.3,57.3,29.40,NE,40,0.0,19.0,93,0.00,,---,1.00,VWS V13.01,2013-06-13 20:38:00,
2013-06-13 16:43:00,59.0,57.0,29.40,NE,36,4.0,19.0,93,0.00,,---,1.00,VWS V13.01,2013-06-13 20:43:00,
2013-06-13 16:48:00,59.0,57.3,29.40,NNW,340,4.0,19.0,94,0.00,,---,1.00,VWS V13.01,2013-06-13 20:48:00,
2013-06-13 16:53:00,59.0,57.3,29.40,NW,306,3.0,19.0,94,0.00,,---,1.00,VWS V13.01,2013-06-13 20:53:00,
2013-06-13 16:58:00,59.0,57.0,29.39,North,9,0.0,19.0,93,0.00,,---,1.00,VWS V13.01,2013-06-13 20:58:00,
2013-06-13 17:03:00,59.0,57.3,29.40,NNW,327,10.0,11.0,94,0.00,,---,1.00,VWS V13.01,2013-06-13 21:03:00,
2013-06-13 17:08:00,59.0,57.3,29.40,NNW,345,8.0,11.0,94,0.00,,---,1.00,VWS V13.01,2013-06-13 21:08:00,
2013-06-13 17:13:00,59.0,57.3,29.40,NW,308,6.0,14.0,94,0.00,,---,1.00,VWS V13.01,2013-06-13 21:13:00,
2013-06-13 17:18:00,58.8,57.1,29.41,North,360,0.0,14.0,94,0.00,,---,1.00,VWS V13.01,2013-06-13 21:18:00,
2013-06-13 17:23:00,58.8,57.1,29.41,NNW,334,8.0,15.0,94,0.00,,---,1.00,VWS V13.01,2013-06-13 21:23:00,
2013-06-13 17:28:00,58.8,57.1,29.41,North,9,4.0,15.0,94,0.00,,---,1.00,VWS V13.01,2013-06-13 21:28:00,
2013-06-13 17:33:00,59.0,57.3,29.42,ENE,77,1.0,16.0,94,0.00,,---,1.00,VWS V13.01,2013-06-13 21:33:00,
2013-06-13 17:38:00,59.0,57.0,29.41,NNW,339,1.0,16.0,93,0.00,,---,1.00,VWS V13.01,2013-06-13 21:38:00,
2013-06-13 17:43:00,59.0,57.0,29.41,NNE,14,0.0,16.0,93,0.00,,---,1.00,VWS V13.01,2013-06-13 21:43:00,
2013-06-13 17:49:00,59.1,57.1,29.41,NNW,344,9.0,16.0,93,0.00,,---,1.00,VWS V13.01,2013-06-13 21:49:00,
2013-06-13 17:54:00,59.4,57.1,29.42,NE,55,4.0,16.0,92,0.00,,---,1.00,VWS V13.01,2013-06-13 21:54:00,
2013-06-13 17:59:00,59.6,57.3,29.42,NE,36,8.0,16.0,92,0.00,,---,1.00,VWS V13.01,2013-06-13 21:59:00,
2013-06-13 18:04:00,59.8,57.2,29.42,ENE,78,0.0,9.0,91,0.00,,---,1.00,VWS V13.01,2013-06-13 22:04:00,
2013-06-13 18:09:00,60.0,57.1,29.42,ENE,65,6.0,12.0,90,0.00,,---,1.00,VWS V13.01,2013-06-13 22:09:00,
2013-06-13 18:14:00,60.2,57.3,29.42,ENE,69,0.0,12.0,90,0.00,,---,1.00,VWS V13.01,2013-06-13 22:14:00,
2013-06-13 18:19:00,60.4,57.5,29.43,ENE,64,5.0,12.0,90,0.00,,---,1.00,VWS V13.01,2013-06-13 22:19:00,
2013-06-13 18:24:00,60.5,56.9,29.43,NE,43,6.0,12.0,88,0.00,,---,1.00,VWS V13.01,2013-06-13 22:24:00,
2013-06-13 18:29:00,60.6,57.0,29.43,NNE,30,9.0,14.0,88,0.00,,---,1.00,VWS V13.01,2013-06-13 22:29:00,
2013-06-13 18:34:00,60.8,57.2,29.43,NNE,13,7.0,11.0,88,0.00,,---,1.00,VWS V13.01,2013-06-13 22:34:00,
2013-06-13 18:39:00,60.9,57.3,29.43,NNE,21,0.0,11.0,88,0.00,,---,1.00,VWS V13.01,2013-06-13 22:39:00,
2013-06-13 18:44:00,60.8,56.9,29.43,North,10,0.0,11.0,87,0.00,,---,1.00,VWS V13.01,2013-06-13 22:44:00,
2013-06-13 18:49:00,60.8,57.2,29.43,NE,34,6.0,11.0,88,0.00,,---,1.00,VWS V13.01,2013-06-13 22:49:00,
2013-06-13 18:54:00,60.9,57.3,29.43,ENE,61,0.0,11.0,88,0.00,,---,1.00,VWS V13.01,2013-06-13 22:54:00,
2013-06-13 18:59:00,61.1,57.5,29.44,NE,42,0.0,11.0,88,0.00,,---,1.00,VWS V13.01,2013-06-13 22:59:00,
2013-06-13 19:04:00,61.3,57.4,29.45,NNE,13,5.0,7.0,87,0.00,,---,1.00,VWS V13.01,2013-06-13 23:04:00,
2013-06-13 19:09:00,61.4,57.5,29.46,NNE,19,0.0,10.0,87,0.00,,---,1.00,VWS V13.01,2013-06-13 23:09:00,
2013-06-13 19:15:00,61.6,57.4,29.46,ENE,59,0.0,10.0,86,0.00,,---,1.00,VWS V13.01,2013-06-13 23:15:00,
2013-06-13 19:20:00,61.7,57.5,29.47,NNW,334,6.0,10.0,86,0.00,,---,1.00,VWS V13.01,2013-06-13 23:20:00,
2013-06-13 19:25:00,62.0,57.5,29.47,ENE,60,4.0,11.0,85,0.00,,---,1.00,VWS V13.01,2013-06-13 23:25:00,
2013-06-13 19:30:00,61.8,56.9,29.48,North,351,6.0,11.0,84,0.00,,---,1.00,VWS V13.01,2013-06-13 23:30:00,
2013-06-13 19:35:00,61.3,56.8,29.48,ENE,57,5.0,14.0,85,0.00,,---,1.00,VWS V13.01,2013-06-13 23:35:00,
2013-06-13 19:40:00,61.2,56.7,29.49,NE,46,8.0,14.0,85,0.00,,---,1.00,VWS V13.01,2013-06-13 23:40:00,
2013-06-13 19:45:00,60.9,56.7,29.49,North,10,8.0,14.0,86,0.00,,---,1.00,VWS V13.01,2013-06-13 23:45:00,
2013-06-13 19:50:00,60.7,56.5,29.49,NNE,13,4.0,14.0,86,0.00,,---,1.00,VWS V13.01,2013-06-13 23:50:00,
2013-06-13 19:55:00,60.5,56.6,29.49,NNW,346,0.0,14.0,87,0.00,,---,1.00,VWS V13.01,2013-06-13 23:55:00,
2013-06-13 20:00:00,60.4,56.5,29.50,NNW,342,0.0,0.0,87,0.00,,---,1.00,VWS V13.01,2013-06-14 00:00:00,
2013-06-13 20:05:00,60.2,56.0,29.51,NNW,329,3.0,8.0,86,0.00,,---,1.00,VWS V13.01,2013-06-14 00:05:00,
2013-06-13 20:10:00,60.0,56.1,29.51,NNW,336,0.0,8.0,87,0.00,,---,1.00,VWS V13.01,2013-06-14 00:10:00,
2013-06-13 20:15:00,59.8,55.9,29.51,NNW,336,0.0,8.0,87,0.00,,---,1.00,VWS V13.01,2013-06-14 00:15:00,
2013-06-13 20:20:00,59.7,56.2,29.52,NNW,336,0.0,8.0,88,0.00,,---,1.00,VWS V13.01,2013-06-14 00:20:00,
2013-06-13 20:25:00,59.5,56.0,29.52,NNW,336,1.0,8.0,88,0.00,,---,1.00,VWS V13.01,2013-06-14 00:25:00,
2013-06-13 20:30:00,59.4,55.8,29.52,NNW,342,0.0,0.0,88,0.00,,---,1.00,VWS V13.01,2013-06-14 00:30:00,
2013-06-13 20:36:00,59.3,55.8,29.52,NNW,341,0.0,1.0,88,0.00,,---,1.00,VWS V13.01,2013-06-14 00:36:00,
2013-06-13 20:41:00,59.2,55.7,29.52,North,5,0.0,8.0,88,0.00,,---,1.00,VWS V13.01,2013-06-14 00:41:00,
2013-06-13 20:46:00,59.2,55.7,29.52,North,5,2.0,8.0,88,0.00,,---,1.00,VWS V13.01,2013-06-14 00:46:00,
2013-06-13 20:51:00,59.1,55.5,29.53,NNW,340,0.0,9.0,88,0.00,,---,1.00,VWS V13.01,2013-06-14 00:51:00,
2013-06-13 20:56:00,59.0,55.5,29.53,NNE,28,0.0,9.0,88,0.00,,---,1.00,VWS V13.01,2013-06-14 00:56:00,
2013-06-13 21:01:00,59.0,55.5,29.53,NE,37,0.0,0.0,88,0.00,,---,1.00,VWS V13.01,2013-06-14 01:01:00,
2013-06-13 21:06:00,59.0,55.5,29.53,North,355,0.0,7.0,88,0.00,,---,1.00,VWS V13.01,2013-06-14 01:06:00,
2013-06-13 21:11:00,59.0,55.5,29.54,North,355,0.0,7.0,88,0.00,,---,1.00,VWS V13.01,2013-06-14 01:11:00,
2013-06-13 21:16:00,59.0,55.5,29.54,NE,45,3.0,7.0,88,0.00,,---,1.00,VWS V13.01,2013-06-14 01:16:00,
2013-06-13 21:21:00,59.0,55.5,29.54,NE,46,0.0,11.0,88,0.00,,---,1.00,VWS V13.01,2013-06-14 01:21:00,
2013-06-13 21:26:00,59.0,55.5,29.54,NE,48,6.0,11.0,88,0.00,,---,1.00,VWS V13.01,2013-06-14 01:26:00,
2013-06-13 21:31:00,59.0,55.8,29.54,NE,42,0.0,0.0,89,0.00,,---,1.00,VWS V13.01,2013-06-14 01:31:00,
2013-06-13 21:36:00,58.9,55.4,29.55,NNE,14,4.0,9.0,88,0.00,,---,1.00,VWS V13.01,2013-06-14 01:36:00,
2013-06-13 21:41:00,58.7,55.2,29.55,NNE,17,0.0,9.0,88,0.00,,---,1.00,VWS V13.01,2013-06-14 01:41:00,
2013-06-13 21:46:00,58.6,55.1,29.55,NNE,21,0.0,9.0,88,0.00,,---,1.00,VWS V13.01,2013-06-14 01:46:00,
2013-06-13 21:51:00,58.5,55.0,29.55,NNE,21,1.0,9.0,88,0.00,,---,1.00,VWS V13.01,2013-06-14 01:51:00,
2013-06-13 21:56:00,58.4,54.9,29.55,NNE,26,0.0,9.0,88,0.00,,---,1.00,VWS V13.01,2013-06-14 01:56:00,
2013-06-13 22:01:00,58.2,54.7,29.55,NNE,26,0.0,1.0,88,0.00,,---,1.00,VWS V13.01,2013-06-14 02:01:00,
2013-06-13 22:07:00,58.1,54.9,29.56,NNE,26,2.0,2.0,89,0.00,,---,1.00,VWS V13.01,2013-06-14 02:07:00,
2013-06-13 22:12:00,58.0,54.8,29.56,NNE,27,4.0,5.0,89,0.00,,---,1.00,VWS V13.01,2013-06-14 02:12:00,
2013-06-13 22:17:00,58.0,54.8,29.56,NNE,25,0.0,5.0,89,0.00,,---,1.00,VWS V13.01,2013-06-14 02:17:00,
2013-06-13 22:22:00,58.0,54.8,29.56,NW,320,0.0,8.0,89,0.00,,---,1.00,VWS V13.01,2013-06-14 02:22:00,
2013-06-13 22:27:00,58.0,54.8,29.56,NNW,335,0.0,8.0,89,0.00,,---,1.00,VWS V13.01,2013-06-14 02:27:00,
2013-06-13 22:32:00,58.0,54.8,29.56,NNE,32,0.0,6.0,89,0.00,,---,1.00,VWS V13.01,2013-06-14 02:32:00,
2013-06-13 22:37:00,57.8,54.6,29.56,NE,39,0.0,6.0,89,0.00,,---,1.00,VWS V13.01,2013-06-14 02:37:00,
2013-06-13 22:42:00,57.7,54.5,29.56,NE,38,0.0,6.0,89,0.00,,---,1.00,VWS V13.01,2013-06-14 02:42:00,
2013-06-13 22:47:00,57.6,54.7,29.56,NE,39,0.0,6.0,90,0.00,,---,1.00,VWS V13.01,2013-06-14 02:47:00,
2013-06-13 22:52:00,57.1,54.5,29.56,NE,39,0.0,6.0,91,0.00,,---,1.00,VWS V13.01,2013-06-14 02:52:00,
2013-06-13 22:57:00,56.7,54.4,29.57,NE,38,0.0,6.0,92,0.00,,---,1.00,VWS V13.01,2013-06-14 02:57:00,
2013-06-13 23:02:00,56.6,54.6,29.56,NE,39,0.0,1.0,93,0.00,,---,1.00,VWS V13.01,2013-06-14 03:02:00,
2013-06-13 23:07:00,56.4,54.4,29.57,NE,38,0.0,1.0,93,0.00,,---,1.00,VWS V13.01,2013-06-14 03:07:00,
2013-06-13 23:12:00,56.3,54.6,29.57,NE,39,0.0,1.0,94,0.00,,---,1.00,VWS V13.01,2013-06-14 03:12:00,
2013-06-13 23:18:00,56.1,54.4,29.57,NE,39,0.0,1.0,94,0.00,,---,1.00,VWS V13.01,2013-06-14 03:18:00,
2013-06-13 23:23:00,56.0,54.3,29.57,NE,39,0.0,1.0,94,0.00,,---,1.00,VWS V13.01,2013-06-14 03:23:00,
2013-06-13 23:28:00,55.9,54.2,29.57,NE,39,0.0,1.0,94,0.00,,---,1.00,VWS V13.01,2013-06-14 03:28:00,
2013-06-13 23:33:00,55.8,54.4,29.57,NE,38,0.0,0.0,95,0.00,,---,1.00,VWS V13.01,2013-06-14 03:33:00,
2013-06-13 23:38:00,55.8,54.4,29.57,NE,39,0.0,1.0,95,0.00,,---,1.00,VWS V13.01,2013-06-14 03:38:00,
2013-06-13 23:43:00,55.7,54.3,29.58,NE,38,0.0,1.0,95,0.00,,---,1.00,VWS V13.01,2013-06-14 03:43:00,
2013-06-13 23:48:00,55.6,54.2,29.58,NE,39,0.0,1.0,95,0.00,,---,1.00,VWS V13.01,2013-06-14 03:48:00,
2013-06-13 23:53:00,55.5,54.1,29.58,NE,39,0.0,1.0,95,0.00,,---,1.00,VWS V13.01,2013-06-14 03:53:00,
2013-06-13 23:58:00,55.4,54.0,29.58,NE,38,0.0,1.0,95,0.00,,---,1.00,VWS V13.01,2013-06-14 03:58:00,